Location: Asheville, NC
(35.6000°N, 82.5500°W)
Time: 00:32:44
(UTC-04:00)

BEESAT 3 - Pass Details

Date: 16 March 2018
Orbit: 499 x 517 km, 64.9° (Epoch: 18 June)

Event Time Altitude Azimuth Distance (km) Brightness Sun altitude
Rises 20:54:09 0° 261° (W) 2,623 ? -16.1°
Reaches altitude 10° 20:58:21 10° 305° (NW) 1,745 ? -16.9°
Maximum altitude 20:58:57 10° 314° (NW) 1,728 ? -17.1°
Drops below altitude 10° 20:59:33 10° 323° (NW) 1,747 ? -17.2°
Sets 21:03:46 0° 7° (N) 2,640 ? -18.0°
